#timestamp,LO_Frequency,Hit 
1500973215.9,286046999.8,N
1500973235.7,286047000.6,N
1500973255.6,286047000.4,N
1500973275.4,286047002.4,N
1500973295.2,286047002.5,N
1500973315.1,286047000.7,N
1500973316.0,286047000.7,N
1500973335.8,286047000.6,N
1500973355.7,286046999.0,N
1500973375.5,286046997.4,N
1500973395.3,286047011.9,Y
1500973415.2,286046995.0,N
1500973435.0,286046996.5,N
1500973455.6,286047001.2,N
1500973475.5,286046998.1,N
1500973495.3,286046998.5,N
1500973515.2,286047000.5,N
1500973535.9,286047001.1,N
1500973555.7,286047001.1,N
1500973575.6,286046999.4,N
1500973595.4,286046996.5,N
1500973615.2,286046997.8,N
1500973635.1,286046997.9,N
1500973636.0,286046997.9,N
1500973655.8,286046997.3,N
1500973675.7,286046998.0,N
1500973695.5,286046998.0,N
1500973715.3,286046997.4,N
1500973735.2,286046998.0,N
1500973755.0,286046995.2,N
1500973755.9,286046995.2,N
1500973775.7,286046997.3,N
1500973795.6,286046995.3,N
1500973815.4,286046996.9,N
1500973835.3,286046999.6,N
1500973855.1,286046996.9,N
1500973875.8,286046995.3,N
1500973895.7,286046997.3,N
1500973915.5,286046997.5,N
1500973935.3,286046997.8,N
1500973955.2,286046997.2,N
1500973975.0,286046996.6,Y
1500973975.9,286046996.6,Y
1500973995.8,286047003.7,Y
1500974015.6,286047006.8,Y
1500974035.5,286047007.7,N
1500974055.3,286047008.3,N
1500974075.1,286047009.1,N
1500974095.9,286047006.1,N
1500974115.7,286047008.9,N
1500974135.5,286047006.1,N
1500974155.4,286047008.9,N
1500974175.2,286047006.5,N
1500974195.1,286047006.1,N
1500974196.0,286047006.1,N
1500974215.8,286047009.1,N
1500974235.6,286047009.2,N
1500974255.5,286047010.6,N
1500974275.3,286047009.5,N
1500974295.1,286047008.5,N
1500974315.9,286047008.3,N
1500974335.7,286047009.0,N
1500974355.6,286047006.1,N
1500974375.4,286047006.5,N
1500974395.2,286047007.0,N
1500974415.1,286047007.0,N
1500974416.0,286047007.0,Y
1500974435.8,286047001.2,N
1500974455.7,286047000.9,N
1500974475.5,286047000.1,N
1500974495.3,286046999.7,N
1500974515.2,286047000.5,N
1500974535.0,286047000.8,N
1500974535.9,286047000.8,N
1500974555.7,286047001.0,N
1500974575.6,286047000.4,N
1500974595.4,286047000.5,N
1500974615.3,286047001.7,N
1500974635.1,286047002.3,N
1500974636.0,286047002.3,N
1500974655.8,286047002.7,N
1500974675.7,286046999.8,N
1500974695.5,286047002.3,N
1500974715.3,286047000.6,N
1500974735.2,286046999.8,N
1500974755.0,286047001.0,N
1500974755.9,286047001.0,N
1500974775.8,286047000.7,N
1500974795.6,286047001.5,N
1500974815.4,286047004.1,N
1500974835.3,286047003.5,N
1500974855.1,286047004.3,Y
1500974875.9,286047000.9,N
1500974895.7,286047000.4,N
1500974915.5,286047001.0,N
1500974935.4,286047001.2,N
1500974955.2,286046998.5,N
1500974975.0,286046998.9,N
1500974976.0,286046998.9,N
1500974995.8,286047000.4,N
1500975015.6,286047000.8,N
1500975035.5,286047002.1,N
1500975055.3,286047004.2,N
1500975075.1,286047003.7,N
1500975095.9,286047004.2,N
1500975115.7,286047002.2,N
1500975135.6,286047002.2,N
1500975155.4,286047002.2,N
1500975175.2,286047002.3,N
1500975195.1,286047000.4,N
1500975196.0,286047000.4,N
1500975215.8,286047002.1,N
1500975235.6,286047000.5,N
1500975255.5,286047002.7,N
1500975275.3,286047002.3,N
1500975295.2,286047001.6,N
1500975315.9,286047002.4,N
1500975335.7,286046999.7,N
1500975355.6,286047002.0,N
1500975375.4,286047002.6,N
1500975395.2,286047002.3,N
1500975415.1,286047002.5,N
1500975416.0,286047002.5,N
1500975435.8,286047002.2,N
1500975455.7,286047002.8,N
1500975475.5,286046999.8,N
1500975495.3,286047000.4,N
1500975515.2,286046998.8,N
1500975535.0,286046998.9,N
1500975535.9,286046998.9,N
1500975555.7,286046998.4,N
1500975575.6,286046998.4,N
1500975595.4,286047001.0,N
1500975615.3,286047000.8,N
1500975635.1,286047000.1,N
1500975636.0,286047000.1,N
1500975655.8,286047002.3,N
1500975675.7,286047003.9,N
1500975695.5,286047003.9,N
1500975715.3,286047003.9,N
1500975735.2,286047004.4,N
1500975755.0,286047001.4,N
1500975755.9,286047001.4,N
1500975775.8,286047002.6,N
1500975795.6,286047002.5,N
1500975815.4,286047004.4,N
1500975835.3,286047001.3,N
1500975855.1,286047003.2,N
1500975875.8,286047001.3,N
1500975895.7,286047004.1,N
1500975915.5,286047003.8,N
1500975935.4,286047003.5,N
1500975955.2,286047004.9,N
1500975975.0,286047005.8,N
1500975975.9,286047005.8,N
1500975995.8,286047005.1,N
1500976015.6,286047003.3,N
1500976035.4,286047003.7,N
1500976055.3,286047007.4,Y
1500976075.1,286047001.3,N
1500976095.9,286047004.2,N
1500976115.7,286047004.2,N
1500976135.5,286047004.0,N
1500976155.4,286047002.2,N
1500976175.2,286047000.6,N
1500976195.0,286047001.2,N
1500976195.9,286047001.2,N
1500976215.8,286046998.8,N
1500976235.6,286046998.7,N
1500976255.5,286047000.7,N
1500976275.3,286046998.5,N
1500976295.1,286047000.8,N
1500976315.9,286047001.2,N
1500976335.7,286047000.6,N
1500976355.5,286047001.0,N
1500976375.4,286046998.6,N
1500976395.2,286046998.7,N
1500976415.1,286046998.6,N
1500976416.0,286046998.6,N
1500976435.8,286047001.0,N
1500976455.6,286047000.8,N
1500976475.5,286046998.9,N
1500976495.3,286046998.3,N
1500976515.1,286046998.2,N
1500976535.9,286046999.0,N
1500976555.7,286046997.2,N
1500976575.6,286046996.9,N
1500976595.4,286046999.6,N
1500976615.2,286046999.3,N
1500976635.1,286046999.3,N
1500976636.0,286046999.3,N
1500976655.8,286047000.8,N
1500976675.7,286046999.2,N
1500976695.5,286046999.6,N
1500976715.3,286046997.6,N
1500976735.2,286046997.6,N
1500976755.0,286046996.6,N
1500976755.9,286046996.6,N
1500976775.7,286046997.7,N
1500976795.6,286046996.7,N
